FW0211 Weather Reports


time (UTC)temp
C
wind
direction
speed
KPH
gust
KPH
rain 1hr
cm
rain 24hr
cm
rain mn
cm
humidity
%
barometer
mb
20260505124539 23 191 29.0 41.8 0.00 0.00 0.00 87 1010.6
20260505123035 23 191 27.4 41.8 0.00 0.00 0.00 88 1010.7
20260505121537 23 173 29.0 41.8 0.00 0.00 0.00 88 1010.7
20260505120030 23 167 27.4 38.6 0.00 0.00 0.00 88 1010.5
20260505114528 23 190 27.4 38.6 0.00 0.00 0.00 88 1010.3
20260505113038 23 188 27.4 38.6 0.00 0.00 0.00 88 1010.6
20260505111540 23 360 29.0 41.8 0.00 0.00 0.00 87 1010.4
20260505101523 23 171 24.1 40.2 0.00 0.00 0.00 86 1010.4
20260505100011 23 182 29.0 41.8 0.00 0.00 0.00 86 1010.6
20260505094505 23 176 29.0 41.8 0.00 0.00 0.00 85 1010.5
20260505093100 23 182 27.4 43.5 0.00 0.00 0.00 85 1010.5
20260505091606 23 186 30.6 43.5 0.00 0.00 0.00 85 1010.5
20260505090057 23 182 29.0 40.2 0.00 0.00 0.00 85 1010.5
20260505084547 23 194 29.0 45.1 0.00 0.00 0.00 84 1010.6
20260505083100 23 159 35.4 56.3 0.00 0.00 0.00 84 1010.8
20260505081539 23 191 33.8 49.9 0.00 0.00 0.00 83 1010.8
20260505080041 23 185 38.6 45.1 0.00 0.00 0.00 83 1010.7
20260505074536 23 190 35.4 45.1 0.00 0.00 0.00 83 1010.8
20260505073034 23 192 32.2 46.7 0.00 0.00 0.00 82 1010.9
20260505071534 23 160 32.2 45.1 0.00 0.00 0.00 82 1010.9
20260505070030 23 186 29.0 45.1 0.00 0.00 0.00 82 1011.3
20260505064529 23 184 33.8 48.3 0.00 0.00 0.00 81 1011.5
20260505063029 23 178 32.2 45.1 0.00 0.00 0.00 81 1011.5
20260505061538 23 360 35.4 46.7 0.00 0.00 0.00 81 1011.6
20260505060027 23 174 30.6 46.7 0.00 0.00 0.00 80 1011.7
20260505054535 23 178 30.6 46.7 0.00 0.00 0.00 80 1011.8
20260505053026 23 158 30.6 45.1 0.00 0.00 0.00 80 1012.0
20260505051523 23 159 29.0 45.1 0.00 0.00 0.00 79 1012.0
20260505041517 23 360 32.2 38.6 0.00 0.00 0.00 78 1012.4
20260505040033 23 184 30.6 41.8 0.00 0.00 0.00 78 1012.4
20260505034518 23 174 30.6 41.8 0.00 0.00 0.00 77 1012.5
20260505033016 23 162 30.6 45.1 0.00 0.00 0.00 77 1012.5
20260505031514 23 360 30.6 46.7 0.00 0.00 0.00 77 1012.6
20260505030016 23 360 30.6 43.5 0.00 0.00 0.00 77 1012.7
20260505024512 23 155 32.2 40.2 0.00 0.00 0.00 77 1012.7
20260505023013 23 137 27.4 38.6 0.00 0.00 0.00 77 1012.9
20260505021511 23 146 27.4 40.2 0.00 0.00 0.00 76 1012.6
20260505020013 23 144 27.4 38.6 0.00 0.00 0.00 76 1012.5
20260505014509 23 170 24.1 33.8 0.00 0.00 0.00 76 1012.4
20260505013009 23 360 27.4 37.0 0.00 0.00 0.00 75 1012.2
20260505011509 23 167 25.7 35.4 0.00 0.00 0.00 75 1012.2
20260505010009 23 153 25.7 32.2 0.00 0.00 0.00 74 1012.1
20260505004512 23 155 22.5 33.8 0.00 0.00 0.00 73 1012.3
20260505003004 23 360 24.1 32.2 0.00 0.00 0.00 72 1012.5
20260505001504 23 360 24.1 33.8 0.00 0.00 0.00 72 1012.5
20260505000003 23 169 22.5 32.2 0.00 0.00 0.00 71 1012.5
20260504234613 23 172 22.5 30.6 0.00 0.00 0.00 70 1012.5
20260504233102 23 360 19.3 32.2 0.00 0.00 0.00 70 1012.8
20260504231557 24 360 20.9 33.8 0.00 0.00 0.00 69 1013.0
20260504230057 24 360 20.9 30.6 0.00 0.00 0.00 69 1013.1
20260504224555 24 360 20.9 29.0 0.00 0.00 0.00 70 1013.3
20260504223055 24 360 19.3 30.6 0.00 0.00 0.00 70 1013.5
20260504221553 24 182 20.9 24.1 0.00 0.00 0.00 69 1013.6
20260504220100 24 182 22.5 30.6 0.00 0.00 0.00 69 1013.8
20260504214551 24 169 19.3 32.2 0.00 0.00 0.00 69 1013.9
20260504213108 24 155 19.3 27.4 0.00 0.00 0.00 68 1013.9
20260504211548 25 166 17.7 29.0 0.00 0.00 0.00 68 1014.4
20260504210047 25 360 17.7 27.4 0.00 0.00 0.00 67 1014.3
20260504204547 25 211 20.9 27.4 0.00 0.00 0.00 66 1014.6
20260504203044 25 167 20.9 27.4 0.00 0.00 0.00 67 1014.7
20260504201542 25 360 17.7 22.5 0.00 0.00 0.00 67 1014.8
20260504200041 25 360 14.5 25.7 0.00 0.00 0.00 67 1014.9
20260504194539 25 188 16.1 25.7 0.00 0.00 0.00 67 1015.3
20260504193053 25 138 16.1 24.1 0.00 0.00 0.00 65 1015.5
20260504191537 25 169 19.3 27.4 0.00 0.00 0.00 65 1015.6
20260504190038 24 168 17.7 30.6 0.00 0.00 0.00 67 1015.5
20260504184532 24 360 24.1 37.0 0.00 0.00 0.00 68 1015.9
20260504183034 24 155 22.5 29.0 0.00 0.00 0.00 67 1015.9
20260504181534 24 182 22.5 35.4 0.00 0.00 0.00 67 1016.0
20260504180027 23 205 20.9 30.6 0.00 0.00 0.00 67 1016.2
20260504174522 23 151 22.5 33.8 0.00 0.00 0.00 67 1016.2
20260504173022 24 360 24.1 32.2 0.00 0.00 0.00 68 1016.3
20260504171517 23 360 22.5 33.8 0.00 0.00 0.00 67 1016.9